Location: Ferchesar
(52.6477°N, 12.4298°E)
Time: 22:16:57
(UTC+01:00)

TIGRISAT - Pass Details

Date: 22 October 2021
Orbit: 603 x 689 km, 97.7° (Epoch: 30 November)

Event Time Altitude Azimuth Distance (km) Brightness Sun altitude
Rises 19:02:24 0° 27° (NNE) 2,991 ? -10.1°
Reaches altitude 10° 19:05:29 10° 49° (NE) 2,055 ? -10.6°
Maximum altitude 19:08:13 16° 87° (E) 1,683 ? -11.0°
Drops below altitude 10° 19:10:53 10° 124° (SE) 2,012 ? -11.4°
Sets 19:13:51 0° 147° (SSE) 2,896 ? -11.9°
